Simultaneous Nadir Overpasses (SNOs) Predictions

Prediction of SNOs near US between AQUA and NPP Satellite Orbit:

Table of predicted SNOs near US for the next 10.0 days since TLE Epoch: 9/25/2015
Index Date (AQUA) Time (AQUA) AQUA Lat,Lon Date (NPP) Time (NPP) NPP Lat,Lon Distance(km) Time Diff (sec)
1 09/27/2015 07:18:42 49.92, -75.99 09/27/2015 07:23:13 50.33, -78.16 161.56 271
2 09/27/2015 08:57:35 49.93,-100.71 09/27/2015 09:04:40 50.50,-103.47 206.02 425
3 09/29/2015 18:16:51 49.97, -80.17 09/29/2015 18:13:25 49.73, -81.63 108.06 206
4 09/29/2015 19:55:44 49.96,-104.89 09/29/2015 19:54:53 49.63,-106.96 153.29 51
5 09/29/2015 21:29:20 31.03,-123.41 09/29/2015 21:30:54 30.54,-125.81 235.48 94
6 10/02/2015 07:45:34 20.01, -89.53 10/02/2015 07:38:03 19.98, -89.29 25.29 451
7 10/02/2015 09:21:08
